Probability
0 0 0 0 0 0 0 0 0 0 0 0 0 0 0 0 1 3 6 6 4 2 0 0 1 0 0 0 0 0 0 0 0 0 0 0 0 0 0 0 0 0 0
0 0 0 0 0 0 0 1 1 1 0 0 0 0 0 0 1 3 5 6 5 3 1 0 1 0 0 0 0 0 0 0 0 0 0 0 0 0 0 0 0 0 0
0 0 0 0 0 1 1 1 2 1 0 0 0 0 0 0 0 1 3 5 6 4 1 0 0 0 0 0 0 0 0 0 0 0 0 0 0 0 0 0 0 0 0
0 0 0 0 1 2 2 2 1 1 0 0 0 0 0 0 0 0 1 3 4 4 2 0 0 0 0 0 0 0 0 0 0 0 0 0 0 0 0 0 0 0 0
0 0 0 0 1 2 3 2 0 0 0 0 0 0 0 0 0 0 0 1 2 2 1 0 0 0 0 0 0 0 0 0 0 0 0 0 0 0 0 0 0 0 0
0 0 0 0 1 2 2 1 0 0 0 0 0 0 0 0 0 0 0 0 0 0 0 0 0 0 0 0 0 0 0 0 0 0 0 0 0 0 0 0 0 0 0
0 0 0 0 1 1 1 0 0 0 0 0 0 0 0 0 0 0 0 0 0 0 0 0 0 0 0 0 0 0 0 0 0 0 0 0 0 0 0 0 0 0 0
0 0 0 0 0 0 0 0 0 0 0 0 0 0 0 0 0 0 0 0 0 0 0 0 0 0 0 0 0 0 0 0 0 0 0 0 0 0 0 0 0 0 0
0 0 0 0 0 0 0 0 0 0 0 0 0 0 0 0 0 0 0 0 0 0 1 0 0 0 1 0 0 0 0 0 0 0 0 0 0 0 0 0 0 0 0
0 0 0 0 0 0 0 0 0 0 0 0 0 0 0 0 0 0 0 0 0 0 0 0 0 0 0 0 0 0 0 0 0 0 0 0 0 0 0 0 0 0 0
0 0 0 0 0 0 0 0 0 0 0 0 0 0 0 0 0 0 0 0 0 0 0 0 0 0 0 0 0 0 0 0 0 0 0 0 0 0 0 0 0 0 0
0 0 0 0 0 0 0 0 0 0 0 0 0 0 0 0 0 0 0 0 0 0 0 0 0 0 0 0 0 0 0 0 0 0 0 0 0 0 0 0 0 0 0
0 0 0 0 0 0 0 0 0 0 0 0 0 0 0 0 0 0 0 0 0 0 0 0 0 0 0 0 0 0 0 0 0 0 0 0 0 0 0 0 0 0 0
0 0 0 0 0 0 0 0 0 0 0 0 0 0 0 0 0 0 0 0 0 0 0 0 0 0 0 0 0 0 0 0 0 0 0 0 0 0 0 0 0 0 0
0 0 0 0 0 0 0 0 0 0 0 0 0 0 0 0 0 0 0 0 0 0 0 0 0 0 0 0 0 0 0 0 0 0 0 0 0 0 0 0 0 0 0
0 0 0 0 0 0 0 0 0 0 0 0 0 0 0 0 0 0 0 0 0 0 0 0 0 0 0 0 0 0 0 0 0 0 0 0 0 0 0 0 1 1 1
0 0 0 0 0 0 0 0 0 0 0 0 0 0 0 0 0 0 0 0 0 0 0 0 0 0 0 0 0 0 0 0 0 0 0 0 0 0 0 0 1 1 1
0 0 0 0 0 0 0 0 0 0 0 0 0 0 0 0 0 0 0 0 0 0 0 0 0 0 0 0 0 0 0 0 0 0 0 0 0 0 0 1 2 2 3
0 0 0 0 0 0 0 0 0 0 0 0 0 0 0 0 0 0 0 0 0 0 0 0 0 0 0 0 0 0 0 0 0 0 0 0 0 0 0 1 2 3 3
0 0 0 0 0 0 0 0 0 0 0 0 0 0 0 0 0 0 0 0 0 0 0 0 0 0 0 0 0 0 0 0 0 0 0 0 0 0 0 1 1 1 1
0 0 0 0 0 0 0 0 0 0 0 0 0 0 0 0 0 0 0 0 0 0 0 0 0 0 0 0 0 0 0 0 0 0 0 0 0 0 0 0 0 0 0
0 0 0 0 0 0 0 0 0 0 0 0 0 0 0 0 0 0 0 0 0 0 0 0 0 0 0 0 0 0 0 0 0 0 0 0 0 0 0 0 0 0 0
0 0 0 0 0 0 0 0 0 0 0 0 0 0 0 0 0 0 0 0 0 0 0 0 0 0 0 0 0 0 0 0 0 0 0 0 0 0 0 0 0 0 0
0 0 0 0 0 0 0 0 0 0 0 0 0 0 0 0 0 0 0 0 0 0 0 0 0 0 0 0 0 0 0 0 0 0 0 0 0 0 0 0 0 0 0
0 0 0 0 0 0 0 0 0 0 0 0 0 0 0 0 0 0 0 0 0 0 0 0 0 0 0 0 0 0 0 0 0 0 0 0 0 0 0 0 0 0 0
0 0 0 0 0 0 0 0 0 0 0 0 0 0 0 0 0 0 0 0 0 0 0 0 0 0 0 0 0 0 0 0 0 0 0 0 0 0 0 0 0 0 0
Wind_Speed
0 0 5 6 7 7 7 8 8 9 9 9 9 10 10 10 10 11 11 11 11 11 11 10 10 9 10 10 9 9 9 9 9 8 9 8 8 9 8 9 8 5 8
4 2 6 6 7 8 7 8 8 9 9 9 9 10 10 10 10 11 11 11 11 11 10 10 10 9 9 9 9 9 9 8 8 8 9 8 8 8 9 8 8 5 8
5 3 4 6 7 8 8 8 9 9 9 9 9 10 10 10 10 10 11 11 11 11 10 10 10 9 9 9 9 9 9 9 9 9 8 4 5 8 9 9 9 8 8
5 3 5 7 8 8 9 9 9 9 10 10 10 9 10 10 10 10 11 11 11 11 10 9 9 8 9 8 8 9 9 10 9 9 5 4 4 8 10 9 9 8 8
5 3 5 8 8 9 9 9 9 9 9 9 9 9 9 9 9 10 10 10 10 10 10 9 9 8 9 9 9 9 9 9 9 7 4 4 3 8 10 9 8 8 8
4 3 5 8 9 9 8 8 8 8 9 9 9 9 9 9 9 9 10 9 10 10 9 9 9 9 9 9 9 9 9 9 8 5 4 3 3 8 10 9 8 8 7
5 3 5 9 9 9 9 8 8 8 8 8 8 8 8 8 9 9 9 9 9 9 9 9 9 9 9 9 9 10 10 10 6 4 4 4 5 9 9 9 8 8 8
6 4 4 8 9 8 8 8 8 7 7 7 7 7 8 8 8 8 9 9 8 8 8 9 9 9 10 10 11 11 10 9 7 5 4 4 7 9 9 9 8 8 8
6 5 3 4 5 7 8 7 7 6 6 6 6 7 7 7 7 7 8 8 8 8 9 8 9 9 9 10 11 11 11 10 5 3 5 3 8 9 9 9 8 8 7
4 4 4 3 3 3 3 6 6 5 5 6 5 5 6 6 6 6 6 7 8 8 8 8 8 9 9 9 10 10 10 8 5 4 3 4 8 9 9 8 7 6 6
4 4 4 4 3 3 3 3 4 4 3 3 3 4 4 2 3 3 5 6 7 7 7 8 8 8 9 8 10 10 8 4 4 3 2 6 8 8 8 7 7 7 6
4 4 4 4 4 3 3 2 1 0 0 0 1 1 1 1 1 3 4 5 5 6 6 6 7 7 6 4 6 8 4 4 3 3 3 7 8 8 8 7 7 6 6
3 4 5 4 4 4 2 2 1 0 0 0 1 2 2 2 2 2 2 3 4 4 3 4 4 3 4 3 3 3 4 3 3 2 3 7 8 7 7 7 7 7 7
3 3 4 4 3 3 2 2 2 1 1 1 1 3 3 2 2 1 1 2 2 2 3 3 3 4 4 4 4 4 4 3 2 2 3 7 7 7 7 8 8 8 8
4 4 5 4 4 3 2 2 2 1 1 1 1 2 4 3 2 2 1 2 2 2 3 3 3 4 4 4 4 4 3 3 3 3 3 6 7 7 7 8 8 8 8
4 4 4 4 4 4 3 2 2 2 1 2 2 3 4 3 3 2 2 2 2 2 3 3 3 4 3 3 4 4 3 3 3 3 3 4 7 7 7 8 8 7 8
5 4 5 5 4 4 4 3 2 2 2 2 2 3 3 3 3 3 3 2 2 3 4 4 4 3 4 4 4 4 3 3 3 3 3 2 3 6 7 8 8 8 8
5 4 4 5 5 4 3 3 2 2 2 2 2 2 3 3 4 4 3 3 2 3 3 3 3 4 3 3 3 3 3 3 3 3 3 3 2 3 5 9 9 9 9
5 5 4 5 5 4 4 3 3 3 3 2 2 2 2 3 4 4 3 3 3 3 3 3 3 3 3 3 3 3 3 2 2 3 3 3 3 3 3 6 9 10 10
4 5 5 5 4 4 3 3 3 3 2 2 2 2 3 3 4 4 3 3 3 3 3 3 3 2 2 2 3 4 3 3 3 3 3 3 3 4 4 4 4 6 10
4 5 5 4 3 3 2 2 2 1 1 1 1 2 2 3 3 3 3 3 3 3 3 3 3 3 2 2 3 3 3 4 4 3 3 3 4 4 4 4 4 4 4
4 4 4 4 4 3 2 2 2 1 0 0 1 2 2 2 3 4 4 3 3 3 3 3 3 2 1 1 2 2 2 4 4 4 2 3 3 3 4 4 4 4 3
4 4 4 4 4 3 3 2 2 2 2 2 2 1 1 1 2 3 3 3 3 3 3 3 3 3 2 0 1 3 3 1 1 3 3 3 3 3 2 3 3 3 3
4 4 4 4 3 2 3 3 3 2 1 1 1 0 1 1 2 2 3 3 3 2 3 2 3 2 3 1 0 1 2 4 3 1 3 3 3 3 2 2 2 2 2
4 4 4 4 3 2 3 4 3 2 1 1 0 1 1 1 1 2 3 3 3 2 2 2 2 2 2 2 1 1 2 2 2 3 0 2 3 3 2 1 1 1 2
3 3 3 4 3 2 3 3 3 3 3 2 1 1 0 0 1 1 2 2 3 2 2 2 2 3 2 2 1 2 2 2 2 2 2 1 0 2 2 1 1 1 1
Wind_Direction
166 188 88 81 81 81 78 78 76 76 74 75 78 81 83 84 86 86 88 87 85 87 88 89 87 88 85 82 79 79 78 84 89 89 88 87 88 93 96 97 93 91 96
160 146 100 90 87 88 85 82 79 80 77 76 79 83 85 88 89 85 85 85 84 84 84 83 85 87 83 80 79 77 76 81 88 89 88 87 88 94 96 97 95 94 94
139 129 112 101 97 92 89 85 82 83 82 79 79 83 85 87 89 88 86 86 84 82 80 81 81 82 82 80 78 77 78 77 79 84 81 72 84 95 96 95 94 92 91
137 132 118 108 102 97 93 88 85 84 82 82 80 82 86 87 87 88 88 89 87 84 80 78 78 78 80 79 78 79 79 75 76 77 68 61 75 93 92 91 89 89 91
129 125 121 113 106 103 100 97 94 91 87 85 84 83 86 90 91 90 90 89 88 87 84 82 81 77 78 78 79 80 82 80 77 71 62 61 72 92 92 93 91 87 88
133 132 129 122 114 109 107 103 98 95 93 89 87 86 88 92 93 93 94 94 92 90 87 84 80 76 76 78 78 80 83 82 79 71 65 65 79 92 92 91 89 86 87
145 144 137 129 122 117 114 111 104 98 96 94 90 87 88 91 93 92 95 97 96 92 88 85 81 77 75 76 76 79 83 82 81 75 71 68 84 91 90 86 85 84 83
151 149 142 138 133 127 121 116 110 105 100 97 92 89 90 93 96 95 96 98 96 93 90 86 81 79 75 76 77 78 80 82 83 81 70 70 88 91 89 83 82 78 77
146 145 149 152 142 140 134 128 122 114 110 106 99 93 91 98 101 100 99 99 98 96 93 89 84 79 73 73 77 78 75 72 66 67 77 70 83 86 86 81 77 72 71
146 152 160 171 163 151 146 145 137 129 121 117 111 101 92 91 93 100 98 100 101 99 95 92 84 79 74 72 75 76 72 68 59 55 58 77 83 84 83 79 76 72 68
158 166 171 178 180 176 175 165 149 142 130 119 114 116 94 65 63 81 95 100 99 94 91 91 83 77 70 66 69 72 67 57 58 53 54 80 83 83 81 79 76 71 68
169 184 179 181 183 182 176 149 168 161 151 160 166 147 111 110 104 96 87 88 90 89 83 85 81 67 59 50 57 63 56 53 55 52 64 76 79 78 77 77 75 73 71
161 160 166 174 171 166 159 147 144 135 163 158 150 147 128 114 95 71 58 48 49 61 58 66 67 61 63 65 63 63 59 52 43 41 57 73 77 79 78 75 72 69 67
121 118 129 143 140 146 139 135 126 121 97 90 108 123 122 115 106 97 78 69 61 57 66 61 72 73 70 70 78 76 68 59 46 34 50 70 77 80 78 75 71 68 66
112 105 120 121 116 119 116 116 110 110 102 93 81 113 125 124 127 115 88 80 79 78 82 79 78 78 76 73 78 82 77 70 60 47 37 62 72 72 72 72 69 66 68
119 123 126 118 108 101 102 105 111 105 92 77 75 98 119 127 127 116 100 89 87 90 90 93 93 86 78 79 76 72 75 69 63 61 42 42 59 66 68 71 69 69 70
132 129 126 122 107 100 96 93 95 97 92 76 66 83 107 118 119 113 109 103 103 100 93 87 82 81 81 75 67 60 62 61 63 61 53 38 32 51 61 65 68 71 72
132 126 125 119 109 102 98 85 75 75 77 70 66 74 101 116 116 111 109 110 110 99 93 91 85 82 70 63 58 52 52 52 56 56 56 49 37 42 51 61 64 69 73
143 136 126 120 119 113 102 87 79 74 70 61 66 74 96 109 109 110 112 116 112 98 93 99 82 90 83 70 66 54 41 45 50 62 53 47 49 52 46 56 60 61 66
139 135 134 128 128 114 97 78 60 51 43 43 52 67 94 108 107 107 113 114 113 106 94 96 97 83 95 91 79 58 36 37 43 49 48 44 48 58 56 53 48 51 56
127 131 140 135 135 120 103 97 86 60 12 19 33 70 90 106 111 109 113 112 116 119 127 124 109 90 73 87 77 44 23 33 40 38 42 50 49 54 61 57 53 47 42
135 132 136 141 144 141 136 140 142 137 119 32 17 48 72 96 115 128 128 127 128 119 115 119 118 109 87 93 111 93 32 10 8 21 27 54 53 54 61 64 62 59 50
136 145 145 145 140 139 129 105 83 59 33 25 24 16 20 99 108 126 140 139 142 138 146 151 143 137 138 37 118 135 134 178 334 351 13 30 41 55 55 61 67 64 65
158 152 142 136 126 131 130 126 128 132 157 221 216 72 21 79 105 120 135 141 145 142 148 164 149 144 136 145 357 68 145 151 140 37 350 4 27 47 57 75 69 63 64
150 145 143 136 132 131 137 142 138 145 182 203 53 86 39 22 62 113 128 135 140 142 156 154 136 132 137 150 166 135 87 78 106 130 134 344 5 3 19 58 80 69 59
122 127 139 141 146 154 139 143 150 165 167 159 170 158 297 351 359 91 127 133 140 140 152 155 144 135 138 136 138 132 139 136 148 135 144 160 359 330 359 19 56 75 72